Location: Dampvalley
(47.9094°N, 6.1967°E)
Time: 07:17:17
(UTC+00:00)

Cosmos 883 Rocket - Pass Details

Date: 05 March 2021
Orbit: 951 x 994 km, 83.0° (Epoch: 18 April)

Event Time Altitude Azimuth Distance (km) Brightness Sun altitude
Exits shadow 04:13:24 - 192° (SSW) 3,655 7.3 -20.0°
Rises 04:13:27 0° 192° (SSW) 3,639 7.3 -20.0°
Reaches altitude 10° 04:15:57 10° 193° (SSW) 2,691 6.6 -19.5°
Maximum altitude 04:22:06 77° 279° (W) 987 4.4 -18.5°
Drops below altitude 10° 04:28:16 10° 6° (N) 2,691 7.0 -17.5°
Sets 04:30:46 0° 9° (N) 3,639 7.7 -17.1°
